NOAA 16 DEB

Satellite information

Favourite Embed

Satellite Type and Status

DEBRISIN ORBIT

Key statistics

Satellite NOAA 16 DEB at a glance.

Uptime

9115

Days in orbit

Revolutions

≈ 14.3

Per day

Orbit

SSO

Sun Synchronous Orbit

Inclination

98.7

Latest

Satellite identification and parameters

Extended collection of information and parameters for NOAA 16 DEB.

Object identification

Identified? True

Debris? True

Object name: NOAA 16 DEB

International designator: 2000-055RT

Object number (NORAD): 42375

Object ID (CCSDS): 42375

Country: UNITED STATES OF AMERICA (US)

Current information (Y/N): Y

RCS size: SMALL

Orbital parameters

Period: 100.94 minutes

Inclination: 98.6846 deg

SMA: 7181.312 km

Apoapsis: 806.592 km

Periapsis: 799.761 km

RAAN: 314.4214 deg

Eccentricy: 0.00047564

Argument of periapsis: 246.4727 deg

Mean anomaly: 113.5954 deg

Mean motion: 14.26583149 rev/day

Mean motion (dot): 0.00006042 rev/day2

B* drag term: 0.0025199468 1/REarth

Two-line elements (TLE)

Creation date: Sept. 1, 2025, 2:20 a.m.

Reference frame: TEME

Reference center: EARTH

Epoch: Aug. 31, 2025, 10:27 p.m. UTC

TLE line 0: 0 NOAA 16 DEB

TLE line 1: 1 42375U 00055RT 25243.93552948 .00006042 00000-0 25199-2 0 9992

TLE line 2: 2 42375 98.6846 314.4214 0004756 246.4727 113.5954 14.26583149484981

Live tracking on map

Real-time ground track for satellite NOAA 16 DEB.

In-orbit conjunctions

A list of the most updated potential collisions computed for object NOAA 16 DEB.

Target Orbit TCA Probability of collision Miss distance Type
CZ-4C R/B SSO 2025-07-25 04:57:11 0.0002525744 412.0 (m) ROCKET BODY
CZ-6A DEB LEO 2025-03-15 16:40:38 0.0001056418 40.0 (m) DEBRIS

Associated space launch

The NOAA K, L and M POES satellites begin the fifth generation of improved environmental monitoring in support of NOAA missions. The instrument payload has significant improvements and additions/deletions. The instrument changes have effected the spacecraft subsystems and data formats.

NOAA 16 DEB was lifted into orbit during the mission ‘Titan II SLV | NOAA 16’, on board a Titan II SLV space rocket.

The launch took place on Sept. 21, 2000, 10:22 a.m. from Space Launch Complex 4W.

For more information about the launch, click the button.

Launch to space Titan II SLV | NOAA 16
Titan II SLV | NOAA 16

Agency: N/A

Status: Launch Successful

Launch date: Sept. 21, 2000, 10:22 a.m. UTC

Rocket: Titan II SLV

Launch pad: Space Launch Complex 4W

Location: Vandenberg SFB, CA, USA

...

Latest news about this satellite

There are no fresh news available about this satellite. Check back as we update our databases every day.


Newsletter sign-up

Weekly statistics, charts and insights to help you stay on top of the space industry.